| time (UTC) | temp F | wind direction | speed MPH | gust MPH | rain 1hr in | rain 24hr in | rain mn in | humidity % | barometer mb |
| 20260906224037 | 87 | 138 | 2.0 | 12.0 | 0.00 | 0.00 | 0.00 | 39 | 1014.9 |
| 20260906223534 | 87 | 150 | 7.0 | 12.0 | 0.00 | 0.00 | 0.00 | 37 | 1014.9 |
| 20260906223104 | 87 | 204 | 5.0 | 12.0 | 0.00 | 0.00 | 0.00 | 38 | 1015.0 |
| 20260906222537 | 87 | 115 | 2.0 | 12.0 | 0.00 | 0.00 | 0.00 | 38 | 1015.1 |
| 20260906222037 | 87 | 133 | 4.0 | 12.0 | 0.00 | 0.00 | 0.00 | 36 | 1015.1 |
| 20260906221601 | 86 | 87 | 2.0 | 10.0 | 0.00 | 0.00 | 0.00 | 40 | 1015.1 |
| 20260906221040 | 86 | 181 | 4.0 | 10.0 | 0.00 | 0.00 | 0.00 | 38 | 1015.2 |
| 20260906220542 | 86 | 167 | 2.0 | 5.0 | 0.00 | 0.00 | 0.00 | 37 | 1015.3 |
| 20260906220058 | 86 | 86 | 1.0 | 6.0 | 0.00 | 0.00 | 0.00 | 37 | 1015.5 |
| 20260906215537 | 86 | 140 | 2.0 | 6.0 | 0.00 | 0.00 | 0.00 | 36 | 1015.5 |
| 20260906215037 | 87 | 48 | 2.0 | 8.0 | 0.00 | 0.00 | 0.00 | 36 | 1015.6 |
| 20260906214607 | 86 | 85 | 3.0 | 8.0 | 0.00 | 0.00 | 0.00 | 35 | 1015.7 |
| 20260906214034 | 86 | 145 | 2.0 | 7.0 | 0.00 | 0.00 | 0.00 | 37 | 1015.8 |
| 20260906213538 | 86 | 72 | 4.0 | 7.0 | 0.00 | 0.00 | 0.00 | 36 | 1015.9 |
| 20260906213059 | 87 | 108 | 2.0 | 8.0 | 0.00 | 0.00 | 0.00 | 37 | 1015.9 |
| 20260906212537 | 87 | 117 | 3.0 | 8.0 | 0.00 | 0.00 | 0.00 | 38 | 1016.0 |
| 20260906212037 | 86 | 150 | 4.0 | 8.0 | 0.00 | 0.00 | 0.00 | 39 | 1016.1 |
| 20260906211603 | 86 | 134 | 4.0 | 9.0 | 0.00 | 0.00 | 0.00 | 41 | 1016.1 |
| 20260906211037 | 86 | 177 | 4.0 | 9.0 | 0.00 | 0.00 | 0.00 | 39 | 1016.2 |
| 20260906210539 | 86 | 91 | 3.0 | 8.0 | 0.00 | 0.00 | 0.00 | 42 | 1016.3 |
| 20260906210117 | 86 | 110 | 1.0 | 8.0 | 0.00 | 0.00 | 0.00 | 45 | 1016.3 |
| 20260906205534 | 85 | 127 | 3.0 | 9.0 | 0.00 | 0.00 | 0.00 | 43 | 1016.3 |
| 20260906205037 | 85 | 71 | 2.0 | 10.0 | 0.00 | 0.00 | 0.00 | 40 | 1016.4 |
| 20260906204603 | 85 | 84 | 5.0 | 10.0 | 0.00 | 0.00 | 0.00 | 40 | 1016.4 |
| 20260906204037 | 85 | 94 | 2.0 | 8.0 | 0.00 | 0.00 | 0.00 | 40 | 1016.5 |
| 20260906203538 | 85 | 152 | 2.0 | 8.0 | 0.00 | 0.00 | 0.00 | 40 | 1016.5 |
| 20260906203059 | 85 | 92 | 2.0 | 9.0 | 0.00 | 0.00 | 0.00 | 42 | 1016.5 |
| 20260906202538 | 85 | 135 | 4.0 | 11.0 | 0.00 | 0.00 | 0.00 | 43 | 1016.6 |
| 20260906202041 | 84 | 156 | 3.0 | 11.0 | 0.00 | 0.00 | 0.00 | 45 | 1016.5 |
| 20260906201556 | 84 | 95 | 4.0 | 9.0 | 0.00 | 0.00 | 0.00 | 43 | 1016.6 |
| 20260906201038 | 84 | 81 | 4.0 | 10.0 | 0.00 | 0.00 | 0.00 | 44 | 1016.7 |
| 20260906200534 | 84 | 96 | 6.0 | 10.0 | 0.00 | 0.00 | 0.00 | 43 | 1016.8 |
| 20260906200059 | 83 | 83 | 3.0 | 9.0 | 0.00 | 0.00 | 0.00 | 48 | 1016.9 |
| 20260906195534 | 83 | 40 | 2.0 | 9.0 | 0.00 | 0.00 | 0.00 | 45 | 1017.0 |
| 20260906195037 | 83 | 74 | 4.0 | 11.0 | 0.00 | 0.00 | 0.00 | 46 | 1017.0 |
| 20260906194558 | 83 | 0 | 2.0 | 12.0 | 0.00 | 0.00 | 0.00 | 46 | 1016.9 |
| 20260906194036 | 83 | 102 | 6.0 | 12.0 | 0.00 | 0.00 | 0.00 | 45 | 1017.0 |
| 20260906193541 | 83 | 59 | 5.0 | 12.0 | 0.00 | 0.00 | 0.00 | 45 | 1017.0 |
| 20260906193057 | 83 | 36 | 3.0 | 11.0 | 0.00 | 0.00 | 0.00 | 47 | 1017.1 |
| 20260906192537 | 84 | 73 | 3.0 | 10.0 | 0.00 | 0.00 | 0.00 | 45 | 1017.1 |
| 20260906192037 | 83 | 89 | 6.0 | 10.0 | 0.00 | 0.00 | 0.00 | 49 | 1017.2 |
| 20260906191606 | 83 | 142 | 4.0 | 9.0 | 0.00 | 0.00 | 0.00 | 44 | 1017.2 |
| 20260906191038 | 83 | 84 | 2.0 | 9.0 | 0.00 | 0.00 | 0.00 | 49 | 1017.4 |
| 20260906190537 | 83 | 75 | 3.0 | 9.0 | 0.00 | 0.00 | 0.00 | 48 | 1017.5 |
| 20260906190054 | 83 | 96 | 4.0 | 9.0 | 0.00 | 0.00 | 0.00 | 49 | 1017.7 |
| 20260906185534 | 83 | 67 | 2.0 | 7.0 | 0.00 | 0.00 | 0.00 | 50 | 1017.8 |
| 20260906185038 | 83 | 225 | 2.0 | 6.0 | 0.00 | 0.00 | 0.00 | 46 | 1018.0 |
| 20260906184600 | 82 | 104 | 1.0 | 6.0 | 0.00 | 0.00 | 0.00 | 50 | 1018.1 |
| 20260906184040 | 82 | 73 | 1.0 | 6.0 | 0.00 | 0.00 | 0.00 | 52 | 1018.2 |
| 20260906183537 | 82 | 209 | 1.0 | 6.0 | 0.00 | 0.00 | 0.00 | 51 | 1018.2 |
| 20260906183059 | 82 | 118 | 1.0 | 5.0 | 0.00 | 0.00 | 0.00 | 53 | 1018.3 |
| 20260906182537 | 81 | 352 | 2.0 | 5.0 | 0.00 | 0.00 | 0.00 | 52 | 1018.4 |
| 20260906182037 | 81 | 29 | 1.0 | 5.0 | 0.00 | 0.00 | 0.00 | 52 | 1018.6 |
| 20260906181559 | 80 | 34 | 1.0 | 6.0 | 0.00 | 0.00 | 0.00 | 52 | 1018.7 |
| 20260906181037 | 80 | 110 | 1.0 | 7.0 | 0.00 | 0.00 | 0.00 | 53 | 1018.8 |
| 20260906180537 | 79 | 114 | 3.0 | 7.0 | 0.00 | 0.00 | 0.00 | 54 | 1018.8 |
| 20260906180130 | 80 | 194 | 1.0 | 4.0 | 0.00 | 0.00 | 0.00 | 55 | 1018.8 |
| 20260906175538 | 80 | 0 | 1.0 | 4.0 | 0.00 | 0.00 | 0.00 | 56 | 1018.9 |
| 20260906175036 | 79 | 0 | 0.0 | 4.0 | 0.00 | 0.00 | 0.00 | 54 | 1019.1 |
| 20260906174603 | 79 | 76 | 2.0 | 6.0 | 0.00 | 0.00 | 0.00 | 56 | 1019.2 |
| 20260906174038 | 79 | 53 | 1.0 | 6.0 | 0.00 | 0.00 | 0.00 | 54 | 1019.4 |
| 20260906173537 | 79 | 98 | 2.0 | 5.0 | 0.00 | 0.00 | 0.00 | 54 | 1019.5 |
| 20260906173100 | 78 | 243 | 0.0 | 7.0 | 0.00 | 0.00 | 0.00 | 56 | 1019.6 |
| 20260906172539 | 78 | 0 | 2.0 | 7.0 | 0.00 | 0.00 | 0.00 | 54 | 1019.7 |
| 20260906172037 | 78 | 192 | 4.0 | 7.0 | 0.00 | 0.00 | 0.00 | 58 | 1019.8 |
| 20260906171606 | 77 | 79 | 0.0 | 4.0 | 0.00 | 0.00 | 0.00 | 58 | 1020.0 |
| 20260906171038 | 77 | 88 | 1.0 | 4.0 | 0.00 | 0.00 | 0.00 | 60 | 1020.1 |
| 20260906170534 | 76 | 80 | 2.0 | 7.0 | 0.00 | 0.00 | 0.00 | 58 | 1020.1 |
| 20260906170106 | 76 | 17 | 2.0 | 7.0 | 0.00 | 0.00 | 0.00 | 62 | 1020.1 |
| 20260906165534 | 76 | 60 | 3.0 | 7.0 | 0.00 | 0.00 | 0.00 | 60 | 1020.1 |
| 20260906165033 | 75 | 65 | 1.0 | 6.0 | 0.00 | 0.00 | 0.00 | 61 | 1020.1 |
| 20260906164556 | 76 | 34 | 1.0 | 6.0 | 0.00 | 0.00 | 0.00 | 60 | 1020.1 |
| 20260906164038 | 75 | 153 | 1.0 | 8.0 | 0.00 | 0.00 | 0.00 | 62 | 1020.0 |
| 20260906163538 | 74 | 109 | 2.0 | 8.0 | 0.00 | 0.00 | 0.00 | 65 | 1020.1 |
| 20260906163100 | 74 | 74 | 3.0 | 8.0 | 0.00 | 0.00 | 0.00 | 63 | 1020.0 |
| 20260906162537 | 74 | 78 | 2.0 | 7.0 | 0.00 | 0.00 | 0.00 | 64 | 1020.0 |
| 20260906162041 | 74 | 83 | 2.0 | 7.0 | 0.00 | 0.00 | 0.00 | 63 | 1020.0 |
| 20260906161556 | 73 | 55 | 2.0 | 6.0 | 0.00 | 0.00 | 0.00 | 63 | 1020.0 |
| 20260906161034 | 73 | 100 | 2.0 | 5.0 | 0.00 | 0.00 | 0.00 | 65 | 1020.1 |
| 20260906160537 | 74 | 163 | 1.0 | 3.0 | 0.00 | 0.00 | 0.00 | 65 | 1020.1 |
| 20260906160052 | 73 | 106 | 1.0 | 8.0 | 0.00 | 0.00 | 0.00 | 66 | 1020.2 |
| 20260906155534 | 71 | 42 | 3.0 | 8.0 | 0.00 | 0.00 | 0.00 | 66 | 1020.2 |
| 20260906155039 | 72 | 61 | 2.0 | 7.0 | 0.00 | 0.00 | 0.00 | 68 | 1020.1 |
| 20260906154604 | 72 | 72 | 2.0 | 5.0 | 0.00 | 0.00 | 0.00 | 66 | 1020.1 |
| 20260906154037 | 71 | 0 | 2.0 | 7.0 | 0.00 | 0.00 | 0.00 | 68 | 1020.3 |
| 20260906153537 | 72 | 36 | 1.0 | 7.0 | 0.00 | 0.00 | 0.00 | 65 | 1020.3 |
| 20260906153115 | 71 | 84 | 3.0 | 5.0 | 0.00 | 0.00 | 0.00 | 67 | 1020.3 |
| 20260906152538 | 72 | 29 | 0.0 | 4.0 | 0.00 | 0.00 | 0.00 | 65 | 1020.4 |
| 20260906152037 | 71 | 0 | 0.0 | 6.0 | 0.00 | 0.00 | 0.00 | 67 | 1020.4 |
| 20260906151601 | 71 | 6 | 1.0 | 6.0 | 0.00 | 0.00 | 0.00 | 67 | 1020.5 |
| 20260906151037 | 70 | 0 | 0.0 | 3.0 | 0.00 | 0.00 | 0.00 | 69 | 1020.5 |
| 20260906150537 | 70 | 56 | 0.0 | 3.0 | 0.00 | 0.00 | 0.00 | 69 | 1020.5 |
| 20260906150100 | 69 | 0 | 0.0 | 3.0 | 0.00 | 0.00 | 0.00 | 71 | 1020.5 |
| 20260906145537 | 69 | 69 | 0.0 | 3.0 | 0.00 | 0.00 | 0.00 | 71 | 1020.5 |
| 20260906145037 | 68 | 68 | 1.0 | 3.0 | 0.00 | 0.00 | 0.00 | 71 | 1020.5 |
| 20260906144600 | 68 | 342 | 0.0 | 3.0 | 0.00 | 0.00 | 0.00 | 72 | 1020.6 |
| 20260906144036 | 67 | 0 | 0.0 | 2.0 | 0.00 | 0.00 | 0.00 | 76 | 1020.6 |
| 20260906143538 | 66 | 0 | 0.0 | 4.0 | 0.00 | 0.00 | 0.00 | 76 | 1020.5 |
| 20260906143056 | 66 | 0 | 0.0 | 4.0 | 0.00 | 0.00 | 0.00 | 76 | 1020.5 |
| 20260906142537 | 65 | 0 | 1.0 | 4.0 | 0.00 | 0.00 | 0.00 | 77 | 1020.4 |
| 20260906142037 | 65 | 335 | 0.0 | 3.0 | 0.00 | 0.00 | 0.00 | 79 | 1020.4 |
| 20260906141558 | 64 | 0 | 0.0 | 3.0 | 0.00 | 0.00 | 0.00 | 80 | 1020.5 |
| 20260906141037 | 64 | 0 | 1.0 | 3.0 | 0.00 | 0.00 | 0.00 | 80 | 1020.5 |
| 20260906140536 | 63 | 0 | 0.0 | 3.0 | 0.00 | 0.00 | 0.00 | 81 | 1020.6 |
| 20260906140109 | 63 | 0 | 0.0 | 3.0 | 0.00 | 0.00 | 0.00 | 81 | 1020.4 |
| 20260906135537 | 63 | 0 | 1.0 | 3.0 | 0.00 | 0.00 | 0.00 | 82 | 1020.4 |
| 20260906135036 | 62 | 0 | 0.0 | 2.0 | 0.00 | 0.00 | 0.00 | 82 | 1020.3 |
| 20260906134616 | 62 | 0 | 0.0 | 2.0 | 0.00 | 0.00 | 0.00 | 82 | 1020.4 |
| 20260906134038 | 62 | 0 | 0.0 | 3.0 | 0.00 | 0.00 | 0.00 | 82 | 1020.5 |
| 20260906133537 | 62 | 0 | 1.0 | 4.0 | 0.00 | 0.00 | 0.00 | 82 | 1020.3 |
| 20260906133104 | 62 | 37 | 2.0 | 4.0 | 0.00 | 0.00 | 0.00 | 82 | 1020.3 |
| 20260906132539 | 62 | 51 | 1.0 | 4.0 | 0.00 | 0.00 | 0.00 | 83 | 1020.3 |
| 20260906132038 | 62 | 33 | 1.0 | 4.0 | 0.00 | 0.00 | 0.00 | 83 | 1020.3 |
| 20260906131556 | 61 | 38 | 1.0 | 4.0 | 0.00 | 0.00 | 0.00 | 83 | 1020.2 |
| 20260906131037 | 61 | 342 | 1.0 | 4.0 | 0.00 | 0.00 | 0.00 | 84 | 1020.1 |
| 20260906130538 | 61 | 24 | 2.0 | 4.0 | 0.00 | 0.00 | 0.00 | 85 | 1020.2 |
| 20260906130055 | 60 | 19 | 1.0 | 3.0 | 0.00 | 0.00 | 0.00 | 85 | 1020.2 |
| 20260906125537 | 60 | 36 | 1.0 | 3.0 | 0.00 | 0.00 | 0.00 | 84 | 1020.2 |
| 20260906125036 | 60 | 0 | 1.0 | 4.0 | 0.00 | 0.00 | 0.00 | 84 | 1020.3 |
| 20260906124557 | 60 | 14 | 1.0 | 4.0 | 0.00 | 0.00 | 0.00 | 84 | 1020.1 |
| 20260906124037 | 61 | 19 | 2.0 | 4.0 | 0.00 | 0.00 | 0.00 | 83 | 1020.1 |
| 20260906123537 | 61 | 31 | 2.0 | 4.0 | 0.00 | 0.00 | 0.00 | 83 | 1020.1 |
| 20260906123102 | 61 | 36 | 2.0 | 4.0 | 0.00 | 0.00 | 0.00 | 83 | 1020.2 |
| 20260906122534 | 62 | 6 | 2.0 | 4.0 | 0.00 | 0.00 | 0.00 | 83 | 1020.3 |
| 20260906122037 | 62 | 42 | 1.0 | 4.0 | 0.00 | 0.00 | 0.00 | 83 | 1020.2 |
| 20260906121610 | 62 | 40 | 2.0 | 4.0 | 0.00 | 0.00 | 0.00 | 83 | 1020.2 |
| 20260906121033 | 62 | 54 | 0.0 | 2.0 | 0.00 | 0.00 | 0.00 | 82 | 1020.2 |
| 20260906120539 | 62 | 0 | 0.0 | 2.0 | 0.00 | 0.00 | 0.00 | 82 | 1020.1 |
| 20260906120100 | 62 | 0 | 0.0 | 3.0 | 0.00 | 0.00 | 0.00 | 82 | 1020.1 |
| 20260906115536 | 62 | 0 | 1.0 | 3.0 | 0.00 | 0.00 | 0.00 | 82 | 1020.1 |
| 20260906115039 | 62 | 31 | 1.0 | 3.0 | 0.00 | 0.00 | 0.00 | 82 | 1020.1 |
| 20260906114557 | 63 | 31 | 1.0 | 3.0 | 0.00 | 0.00 | 0.00 | 82 | 1020.2 |
| 20260906114036 | 63 | 10 | 1.0 | 3.0 | 0.00 | 0.00 | 0.00 | 82 | 1020.1 |
| 20260906113536 | 63 | 42 | 1.0 | 3.0 | 0.00 | 0.00 | 0.00 | 82 | 1020.0 |
| 20260906113102 | 63 | 0 | 1.0 | 3.0 | 0.00 | 0.00 | 0.00 | 81 | 1020.0 |
| 20260906112536 | 63 | 19 | 2.0 | 3.0 | 0.00 | 0.00 | 0.00 | 81 | 1020.1 |
| 20260906112037 | 64 | 16 | 1.0 | 4.0 | 0.00 | 0.00 | 0.00 | 80 | 1020.0 |
| 20260906111607 | 64 | 19 | 1.0 | 5.0 | 0.00 | 0.00 | 0.00 | 80 | 1020.1 |
| 20260906111036 | 65 | 19 | 2.0 | 5.0 | 0.00 | 0.00 | 0.00 | 80 | 1019.9 |
| 20260906110536 | 65 | 42 | 3.0 | 5.0 | 0.00 | 0.00 | 0.00 | 79 | 1019.9 |
| 20260906105533 | 65 | 50 | 2.0 | 7.0 | 0.00 | 0.00 | 0.00 | 79 | 1019.8 |
| 20260906105037 | 65 | 74 | 3.0 | 7.0 | 0.00 | 0.00 | 0.00 | 79 | 1019.8 |
| 20260906104559 | 66 | 61 | 2.0 | 5.0 | 0.00 | 0.00 | 0.00 | 78 | 1019.7 |
| 20260906104037 | 66 | 54 | 2.0 | 7.0 | 0.00 | 0.00 | 0.00 | 78 | 1019.9 |
| 20260906103536 | 66 | 69 | 3.0 | 9.0 | 0.00 | 0.00 | 0.00 | 78 | 1019.9 |
| 20260906103108 | 66 | 75 | 5.0 | 9.0 | 0.00 | 0.00 | 0.00 | 78 | 1019.8 |
| 20260906102539 | 66 | 67 | 3.0 | 9.0 | 0.00 | 0.00 | 0.00 | 77 | 1019.9 |
| 20260906102037 | 66 | 67 | 4.0 | 9.0 | 0.00 | 0.00 | 0.00 | 77 | 1019.9 |
| 20260906101559 | 66 | 56 | 3.0 | 7.0 | 0.00 | 0.00 | 0.00 | 76 | 1019.9 |
| 20260906101036 | 66 | 69 | 3.0 | 7.0 | 0.00 | 0.00 | 0.00 | 76 | 1019.9 |
| 20260906100538 | 66 | 52 | 4.0 | 7.0 | 0.00 | 0.00 | 0.00 | 75 | 1019.9 |
| 20260906100100 | 67 | 48 | 3.0 | 7.0 | 0.00 | 0.00 | 0.00 | 75 | 1019.9 |
| 20260906095533 | 67 | 57 | 3.0 | 7.0 | 0.00 | 0.00 | 0.00 | 74 | 1019.9 |
| 20260906095038 | 67 | 63 | 2.0 | 6.0 | 0.00 | 0.00 | 0.00 | 73 | 1019.8 |
| 20260906094550 | 67 | 57 | 3.0 | 6.0 | 0.00 | 0.00 | 0.00 | 73 | 1019.8 |
| 20260906094033 | 67 | 47 | 2.0 | 6.0 | 0.00 | 0.00 | 0.00 | 72 | 1019.6 |
| 20260906093537 | 67 | 58 | 2.0 | 7.0 | 0.00 | 0.00 | 0.00 | 72 | 1019.4 |
| 20260906093102 | 67 | 54 | 3.0 | 7.0 | 0.00 | 0.00 | 0.00 | 72 | 1019.4 |
| 20260906092540 | 67 | 55 | 2.0 | 5.0 | 0.00 | 0.00 | 0.00 | 72 | 1019.3 |
| 20260906092037 | 67 | 59 | 2.0 | 5.0 | 0.00 | 0.00 | 0.00 | 72 | 1019.2 |
| 20260906091558 | 67 | 15 | 2.0 | 5.0 | 0.00 | 0.00 | 0.00 | 71 | 1019.1 |
| 20260906091039 | 67 | 64 | 2.0 | 5.0 | 0.00 | 0.00 | 0.00 | 71 | 1019.2 |
| 20260906090536 | 67 | 39 | 2.0 | 4.0 | 0.00 | 0.00 | 0.00 | 71 | 1019.2 |
| 20260906090116 | 67 | 46 | 1.0 | 3.0 | 0.00 | 0.00 | 0.00 | 70 | 1019.1 |
| 20260906085533 | 67 | 27 | 1.0 | 3.0 | 0.00 | 0.00 | 0.00 | 70 | 1019.1 |
| 20260906085036 | 67 | 30 | 1.0 | 3.0 | 0.00 | 0.00 | 0.00 | 70 | 1019.0 |
| 20260906084613 | 67 | 41 | 0.0 | 3.0 | 0.00 | 0.00 | 0.00 | 70 | 1019.0 |
| 20260906084037 | 67 | 41 | 1.0 | 4.0 | 0.00 | 0.00 | 0.00 | 71 | 1018.9 |
| 20260906083537 | 67 | 67 | 1.0 | 4.0 | 0.00 | 0.00 | 0.00 | 71 | 1019.0 |
| 20260906083056 | 67 | 65 | 2.0 | 4.0 | 0.00 | 0.00 | 0.00 | 70 | 1019.1 |
| 20260906082536 | 67 | 27 | 1.0 | 3.0 | 0.00 | 0.00 | 0.00 | 69 | 1019.1 |
| 20260906082037 | 67 | 36 | 1.0 | 3.0 | 0.00 | 0.00 | 0.00 | 69 | 1019.3 |
| 20260906081558 | 67 | 31 | 1.0 | 4.0 | 0.00 | 0.00 | 0.00 | 68 | 1019.3 |
| 20260906081037 | 67 | 31 | 1.0 | 6.0 | 0.00 | 0.00 | 0.00 | 68 | 1019.2 |
| 20260906080537 | 67 | 46 | 1.0 | 6.0 | 0.00 | 0.00 | 0.00 | 69 | 1019.2 |
| 20260906080122 | 67 | 41 | 3.0 | 10.0 | 0.00 | 0.00 | 0.00 | 68 | 1019.3 |
| 20260906075536 | 67 | 30 | 4.0 | 10.0 | 0.00 | 0.00 | 0.00 | 68 | 1019.0 |
| 20260906075036 | 66 | 56 | 4.0 | 9.0 | 0.00 | 0.00 | 0.00 | 68 | 1019.2 |
| 20260906074607 | 66 | 17 | 3.0 | 9.0 | 0.00 | 0.00 | 0.00 | 69 | 1019.1 |
| 20260906074034 | 66 | 359 | 4.0 | 9.0 | 0.00 | 0.00 | 0.00 | 69 | 1019.0 |
| 20260906073537 | 66 | 55 | 4.0 | 7.0 | 0.00 | 0.00 | 0.00 | 69 | 1019.1 |
| 20260906073109 | 66 | 36 | 3.0 | 8.0 | 0.00 | 0.00 | 0.00 | 69 | 1019.1 |
| 20260906072534 | 66 | 46 | 3.0 | 8.0 | 0.00 | 0.00 | 0.00 | 69 | 1019.2 |
| 20260906072036 | 66 | 13 | 4.0 | 8.0 | 0.00 | 0.00 | 0.00 | 68 | 1019.3 |
| 20260906071559 | 66 | 31 | 2.0 | 7.0 | 0.00 | 0.00 | 0.00 | 67 | 1019.2 |
| 20260906071037 | 67 | 347 | 1.0 | 3.0 | 0.00 | 0.00 | 0.00 | 66 | 1019.1 |
| 20260906070537 | 67 | 311 | 0.0 | 4.0 | 0.00 | 0.00 | 0.00 | 65 | 1019.4 |
| 20260906070058 | 67 | 0 | 1.0 | 5.0 | 0.00 | 0.00 | 0.00 | 65 | 1019.5 |
| 20260906065539 | 67 | 342 | 2.0 | 5.0 | 0.00 | 0.00 | 0.00 | 65 | 1019.6 |
| 20260906065038 | 68 | 5 | 1.0 | 4.0 | 0.00 | 0.00 | 0.00 | 62 | 1019.4 |
| 20260906064555 | 68 | 0 | 0.0 | 4.0 | 0.00 | 0.00 | 0.00 | 64 | 1019.4 |
| 20260906064037 | 68 | 33 | 1.0 | 4.0 | 0.00 | 0.00 | 0.00 | 61 | 1019.4 |
| 20260906063535 | 69 | 335 | 1.0 | 3.0 | 0.00 | 0.00 | 0.00 | 59 | 1019.3 |
| 20260906063052 | 69 | 0 | 0.0 | 2.0 | 0.00 | 0.00 | 0.00 | 59 | 1019.4 |
| 20260906062537 | 69 | 308 | 0.0 | 3.0 | 0.00 | 0.00 | 0.00 | 61 | 1019.5 |
| 20260906062038 | 69 | 0 | 0.0 | 3.0 | 0.00 | 0.00 | 0.00 | 62 | 1019.4 |
| 20260906061605 | 69 | 256 | 0.0 | 3.0 | 0.00 | 0.00 | 0.00 | 59 | 1019.3 |
| 20260906061037 | 69 | 256 | 0.0 | 5.0 | 0.00 | 0.00 | 0.00 | 59 | 1019.3 |
| 20260906060539 | 69 | 0 | 0.0 | 11.0 | 0.00 | 0.00 | 0.00 | 59 | 1019.1 |
| 20260906060059 | 69 | 38 | 4.0 | 11.0 | 0.00 | 0.00 | 0.00 | 59 | 1018.9 |
| 20260906055538 | 70 | 60 | 5.0 | 8.0 | 0.00 | 0.00 | 0.00 | 58 | 1018.9 |
| 20260906055038 | 70 | 25 | 5.0 | 10.0 | 0.00 | 0.00 | 0.00 | 57 | 1018.8 |
| 20260906054555 | 70 | 71 | 4.0 | 10.0 | 0.00 | 0.00 | 0.00 | 56 | 1018.8 |
| 20260906054039 | 70 | 57 | 5.0 | 10.0 | 0.00 | 0.00 | 0.00 | 56 | 1018.9 |
| 20260906053538 | 70 | 64 | 3.0 | 6.0 | 0.00 | 0.00 | 0.00 | 56 | 1019.1 |
| 20260906053058 | 71 | 0 | 0.0 | 9.0 | 0.00 | 0.00 | 0.00 | 54 | 1019.2 |
| 20260906052541 | 71 | 42 | 2.0 | 13.0 | 0.00 | 0.00 | 0.00 | 54 | 1018.9 |
| 20260906052039 | 71 | 69 | 7.0 | 14.0 | 0.00 | 0.00 | 0.00 | 53 | 1018.8 |
| 20260906051602 | 71 | 74 | 8.0 | 14.0 | 0.00 | 0.00 | 0.00 | 53 | 1018.8 |
| 20260906051039 | 72 | 58 | 7.0 | 15.0 | 0.00 | 0.00 | 0.00 | 51 | 1018.7 |
| 20260906050538 | 72 | 106 | 9.0 | 17.0 | 0.00 | 0.00 | 0.00 | 50 | 1018.7 |
| 20260906050106 | 73 | 81 | 9.0 | 17.0 | 0.00 | 0.00 | 0.00 | 48 | 1018.4 |
| 20260906045539 | 73 | 40 | 9.0 | 17.0 | 0.00 | 0.00 | 0.00 | 47 | 1018.3 |
| 20260906045039 | 73 | 74 | 7.0 | 15.0 | 0.00 | 0.00 | 0.00 | 47 | 1018.3 |
| 20260906044554 | 72 | 83 | 4.0 | 10.0 | 0.00 | 0.00 | 0.00 | 44 | 1018.4 |
| 20260906044040 | 72 | 54 | 2.0 | 7.0 | 0.00 | 0.00 | 0.00 | 43 | 1018.3 |
| 20260906043542 | 72 | 64 | 3.0 | 7.0 | 0.00 | 0.00 | 0.00 | 43 | 1018.1 |
| 20260906043103 | 72 | 69 | 2.0 | 5.0 | 0.00 | 0.00 | 0.00 | 45 | 1018.1 |
| 20260906042537 | 72 | 48 | 3.0 | 5.0 | 0.00 | 0.00 | 0.00 | 44 | 1017.9 |
| 20260906042040 | 73 | 13 | 3.0 | 5.0 | 0.00 | 0.00 | 0.00 | 41 | 1017.8 |
| 20260906041604 | 73 | 357 | 0.0 | 9.0 | 0.00 | 0.00 | 0.00 | 42 | 1017.8 |
| 20260906041039 | 73 | 15 | 2.0 | 9.0 | 0.00 | 0.00 | 0.00 | 41 | 1017.9 |
| 20260906040538 | 73 | 61 | 5.0 | 9.0 | 0.00 | 0.00 | 0.00 | 43 | 1018.0 |
| 20260906040059 | 73 | 42 | 2.0 | 5.0 | 0.00 | 0.00 | 0.00 | 47 | 1017.9 |
| 20260906035542 | 74 | 296 | 1.0 | 4.0 | 0.00 | 0.00 | 0.00 | 44 | 1017.7 |
| 20260906035038 | 74 | 302 | 0.0 | 8.0 | 0.00 | 0.00 | 0.00 | 43 | 1017.7 |
| 20260906034613 | 74 | 325 | 1.0 | 9.0 | 0.00 | 0.00 | 0.00 | 43 | 1017.6 |
| 20260906034038 | 74 | 2 | 3.0 | 9.0 | 0.00 | 0.00 | 0.00 | 44 | 1017.6 |
| 20260906033539 | 73 | 6 | 2.0 | 7.0 | 0.00 | 0.00 | 0.00 | 44 | 1017.6 |
| 20260906033103 | 74 | 347 | 3.0 | 8.0 | 0.00 | 0.00 | 0.00 | 44 | 1017.6 |
| 20260906032537 | 74 | 32 | 2.0 | 8.0 | 0.00 | 0.00 | 0.00 | 43 | 1017.5 |
| 20260906032039 | 74 | 40 | 4.0 | 8.0 | 0.00 | 0.00 | 0.00 | 43 | 1017.6 |
| 20260906031557 | 74 | 18 | 2.0 | 7.0 | 0.00 | 0.00 | 0.00 | 42 | 1017.7 |
| 20260906031038 | 75 | 15 | 3.0 | 7.0 | 0.00 | 0.00 | 0.00 | 42 | 1017.6 |
| 20260906030558 | 75 | 1 | 2.0 | 10.0 | 0.00 | 0.00 | 0.00 | 40 | 1017.5 |
| 20260906030057 | 76 | 49 | 4.0 | 10.0 | 0.00 | 0.00 | 0.00 | 39 | 1017.5 |
| 20260906025538 | 76 | 76 | 6.0 | 10.0 | 0.00 | 0.00 | 0.00 | 38 | 1017.5 |
| 20260906025038 | 76 | 96 | 3.0 | 7.0 | 0.00 | 0.00 | 0.00 | 38 | 1017.4 |
| 20260906024558 | 76 | 37 | 2.0 | 7.0 | 0.00 | 0.00 | 0.00 | 38 | 1017.3 |
| 20260906024039 | 76 | 48 | 4.0 | 11.0 | 0.00 | 0.00 | 0.00 | 39 | 1017.3 |
| 20260906023538 | 76 | 55 | 6.0 | 11.0 | 0.00 | 0.00 | 0.00 | 40 | 1017.4 |
| 20260906023101 | 76 | 56 | 1.0 | 8.0 | 0.00 | 0.00 | 0.00 | 44 | 1017.3 |
| 20260906022539 | 76 | 323 | 2.0 | 9.0 | 0.00 | 0.00 | 0.00 | 38 | 1017.2 |
| 20260906022038 | 77 | 1 | 1.0 | 12.0 | 0.00 | 0.00 | 0.00 | 38 | 1017.1 |
| 20260906021603 | 77 | 46 | 8.0 | 12.0 | 0.00 | 0.00 | 0.00 | 39 | 1017.2 |
| 20260906021044 | 77 | 41 | 1.0 | 4.0 | 0.00 | 0.00 | 0.00 | 40 | 1017.2 |
| 20260906020539 | 77 | 329 | 1.0 | 5.0 | 0.00 | 0.00 | 0.00 | 39 | 1017.0 |
| 20260906020100 | 77 | 6 | 1.0 | 7.0 | 0.00 | 0.00 | 0.00 | 38 | 1016.8 |
| 20260906015538 | 78 | 9 | 3.0 | 7.0 | 0.00 | 0.00 | 0.00 | 39 | 1016.8 |
| 20260906015038 | 79 | 19 | 2.0 | 6.0 | 0.00 | 0.00 | 0.00 | 38 | 1016.6 |
| 20260906014601 | 79 | 310 | 2.0 | 5.0 | 0.00 | 0.00 | 0.00 | 36 | 1016.6 |
| 20260906014038 | 79 | 319 | 1.0 | 5.0 | 0.00 | 0.00 | 0.00 | 36 | 1016.6 |
| 20260906013538 | 79 | 0 | 1.0 | 5.0 | 0.00 | 0.00 | 0.00 | 36 | 1016.5 |
| 20260906013107 | 79 | 329 | 2.0 | 9.0 | 0.00 | 0.00 | 0.00 | 36 | 1016.5 |
| 20260906012537 | 80 | 328 | 1.0 | 9.0 | 0.00 | 0.00 | 0.00 | 36 | 1016.6 |
| 20260906012038 | 80 | 338 | 3.0 | 9.0 | 0.00 | 0.00 | 0.00 | 35 | 1016.7 |
| 20260906011559 | 80 | 311 | 3.0 | 9.0 | 0.00 | 0.00 | 0.00 | 33 | 1016.7 |
| 20260906011038 | 81 | 327 | 3.0 | 9.0 | 0.00 | 0.00 | 0.00 | 33 | 1016.6 |
| 20260906010538 | 81 | 319 | 2.0 | 10.0 | 0.00 | 0.00 | 0.00 | 34 | 1016.7 |
| 20260906010056 | 81 | 0 | 2.0 | 12.0 | 0.00 | 0.00 | 0.00 | 32 | 1016.8 |
| 20260906005538 | 82 | 347 | 4.0 | 12.0 | 0.00 | 0.00 | 0.00 | 32 | 1016.7 |
| 20260906005038 | 82 | 347 | 6.0 | 12.0 | 0.00 | 0.00 | 0.00 | 31 | 1016.6 |
| 20260906004600 | 83 | 347 | 3.0 | 11.0 | 0.00 | 0.00 | 0.00 | 31 | 1016.7 |
| 20260906004037 | 83 | 347 | 5.0 | 13.0 | 0.00 | 0.00 | 0.00 | 30 | 1016.7 |
| 20260906003538 | 84 | 347 | 5.0 | 14.0 | 0.00 | 0.00 | 0.00 | 30 | 1016.7 |
| 20260906003056 | 85 | 347 | 5.0 | 19.0 | 0.00 | 0.00 | 0.00 | 29 | 1016.8 |
| 20260906002538 | 86 | 264 | 5.0 | 19.0 | 0.00 | 0.00 | 0.00 | 28 | 1016.8 |
| 20260906002041 | 87 | 250 | 9.0 | 19.0 | 0.00 | 0.00 | 0.00 | 27 | 1016.6 |
| 20260906001555 | 88 | 273 | 6.0 | 15.0 | 0.00 | 0.00 | 0.00 | 25 | 1016.6 |
| 20260906001038 | 88 | 276 | 7.0 | 15.0 | 0.00 | 0.00 | 0.00 | 25 | 1016.4 |
| 20260906000540 | 88 | 300 | 4.0 | 10.0 | 0.00 | 0.00 | 0.00 | 25 | 1016.5 |
| 20260906000108 | 88 | 302 | 2.0 | 6.0 | 0.00 | 0.00 | 0.00 | 26 | 1016.4 |
| 20260905235538 | 89 | 260 | 2.0 | 4.0 | 0.00 | 0.00 | 0.00 | 26 | 1016.4 |
| 20260905235038 | 89 | 260 | 0.0 | 2.0 | 0.00 | 0.00 | 0.00 | 26 | 1016.4 |
| 20260905234620 | 89 | 0 | 0.0 | 2.0 | 0.00 | 0.00 | 0.00 | 26 | 1016.4 |
| 20260905234038 | 89 | 37 | 0.0 | 4.0 | 0.00 | 0.00 | 0.00 | 28 | 1016.3 |
| 20260905233538 | 89 | 0 | 0.0 | 4.0 | 0.00 | 0.00 | 0.00 | 25 | 1016.3 |
| 20260905233058 | 89 | 0 | 0.0 | 4.0 | 0.00 | 0.00 | 0.00 | 28 | 1016.3 |
| 20260905232538 | 89 | 34 | 1.0 | 4.0 | 0.00 | 0.00 | 0.00 | 26 | 1016.2 |
| 20260905232038 | 89 | 11 | 1.0 | 4.0 | 0.00 | 0.00 | 0.00 | 27 | 1016.1 |
| 20260905231555 | 89 | 35 | 1.0 | 3.0 | 0.00 | 0.00 | 0.00 | 24 | 1016.1 |
| 20260905231038 | 89 | 0 | 1.0 | 3.0 | 0.00 | 0.00 | 0.00 | 24 | 1016.1 |
| 20260905230538 | 89 | 0 | 1.0 | 9.0 | 0.00 | 0.00 | 0.00 | 24 | 1016.0 |
| 20260905230105 | 90 | 87 | 2.0 | 9.0 | 0.00 | 0.00 | 0.00 | 26 | 1016.0 |
| 20260905225537 | 90 | 83 | 2.0 | 9.0 | 0.00 | 0.00 | 0.00 | 25 | 1015.9 |
| 20260905225038 | 90 | 129 | 4.0 | 9.0 | 0.00 | 0.00 | 0.00 | 24 | 1015.9 |
| 20260905224606 | 91 | 94 | 4.0 | 9.0 | 0.00 | 0.00 | 0.00 | 25 | 1016.0 |